Showing default

LEO 1, 43113

Orbit data source: Space-Track

LEO 1, 43113 is a payload satellite owned by Telesat (Loral) (US) in SSO that was launched on Fri, 12 Jan 2018 UTC via a PSLV-XL launch vehicle from the Sirharikota (SRI). Payload-class satellites include a variety of spacecraft equipped with specific instruments for various scientific and technological missions. These include communications satellites like Starlink; space stations such as the ISS; scientific satellites like the Hubble; Earth observation satellites from companies like Planet Labs, Umbra, and HawkEye 360; GPS; miniature CubeSats for education and research; and military/defense satellites.

Loading next visibility...
Identifier
43113, 2018-004C
Orbit
SSO
Country
Flag of USUS
Related business
Manufacturer
SSTL (Astrium)
Mission
Partially operational Commercial Communications
Bus & Motor
SSTL-42, Unknown motor
Mass
~100 kg wet, ~100 kg dry
Launch date (UTC)
2018-01-12 (8 years ago)
Launch vehicle
PSLV-XL
Launch site
Sirharikota (SRI)
Object type
Payload
Rocket body
Debris
Shape & HBR
Box + 1 Dish, 0.5 m
Radar Cross Section
0.735 m², Medium (>0.1 m² and < 1m²)

Expand to show TLE details & history
Last TLE update: 4 hours ago

TLE from 4 hours ago
0 LEO 1
1 43113U 18004C   25354.16989448  .00002815  00000-0  20277-3 0  9990
2 43113  99.2525 244.1639 0353710 268.4561  87.6103 14.66551402411236
Epoch: 2025-12-20T04:04Z
TLE epoch observation values (Epoch: 2025-12-20T04:04:38.883Z)
Latitude
-0.00006°
Longitude
94.00135°
Altitude
673.481 km
Speed
7.521 km/s
True Right ascension
16h 16m 39s
True Declination
0° 00' 00"
Sunlit
Object was in daylight at epoch
Visualization orbit readout
Latitude
Unknown
Longitude
Unknown
Altitude
Unknown
Speed
Unknown
Apparent Right ascension
Unknown
Apparent Declination
Unknown
Sunlit
N/A
Visualization observer readout
Local Sidereal Time
07:03:58
Azimuth
Unknown
Elevation
Unknown
Doppler factor
Unknown
Orbital elements
Apogee altitude
918.489 km
Perigee altitude
419.946 km
Semi-major axis
7,047.355 km
Eccentricity
0.03537
Inclination
99.2525°
RAAN
244.1639°
Arg. of periapsis
268.4561°
True anomaly
91.66409°
Mean anomaly
87.6103°
Eccentric anomaly
89.63687°
Mean motion
3.66863 °/min
Orbital period
98.13 mins
BSTAR
0.00020277
Loading maneuver chart data...
Computing Atmospheric mass density...

Documentation

Showing up to 5 results
|